| time (UTC) | temp F | wind direction | speed knots | gust knots | rain 1hr in | rain 24hr in | rain mn in | humidity % | barometer mb |
| 20260507100002 | 59 | 5 | 0.0 | 2.6 | 0.00 | 0.01 | 0.00 | 85 | 1009.1 |
| 20260507094559 | 59 | 46 | 0.0 | 2.6 | 0.00 | 0.01 | 0.00 | 84 | 1009.2 |
| 20260507093102 | 59 | 304 | 0.9 | 2.6 | 0.00 | 0.01 | 0.00 | 84 | 1009.0 |
| 20260507091558 | 59 | 35 | 0.0 | 3.5 | 0.00 | 0.01 | 0.00 | 85 | 1008.8 |
| 20260507084554 | 60 | 350 | 0.0 | 2.6 | 0.00 | 0.01 | 0.00 | 88 | 1008.4 |
| 20260507083049 | 61 | 5 | 0.0 | 3.5 | 0.00 | 0.01 | 0.00 | 88 | 1008.5 |
| 20260507081547 | 62 | 74 | 0.0 | 6.1 | 0.00 | 0.01 | 0.00 | 87 | 1008.4 |
| 20260507080046 | 62 | 57 | 0.0 | 2.6 | 0.00 | 0.01 | 0.00 | 86 | 1008.3 |
| 20260507074545 | 63 | 163 | 0.0 | 1.7 | 0.00 | 0.01 | 0.00 | 86 | 1008.0 |
| 20260507073039 | 64 | 164 | 0.0 | 2.6 | 0.00 | 0.01 | 0.00 | 86 | 1007.5 |
| 20260507071534 | 66 | 164 | 0.0 | 1.7 | 0.00 | 0.01 | 0.00 | 88 | 1007.1 |
| 20260507070033 | 66 | 155 | 0.0 | 0.0 | 0.00 | 0.01 | 0.00 | 87 | 1006.8 |
| 20260507064530 | 67 | 155 | 0.0 | 0.0 | 0.00 | 0.01 | 0.00 | 86 | 1006.7 |
| 20260507063031 | 68 | 155 | 0.0 | 0.9 | 0.00 | 0.01 | 0.00 | 85 | 1006.8 |
| 20260507061527 | 69 | 155 | 0.0 | 0.0 | 0.00 | 0.01 | 0.00 | 84 | 1006.7 |
| 20260507060027 | 69 | 155 | 0.0 | 0.0 | 0.00 | 0.01 | 0.00 | 83 | 1007.2 |
| 20260507054521 | 69 | 155 | 0.0 | 3.5 | 0.00 | 0.01 | 0.00 | 83 | 1007.1 |
| 20260507053020 | 69 | 120 | 2.6 | 6.1 | 0.00 | 0.01 | 0.00 | 84 | 1007.2 |
| 20260507051519 | 69 | 121 | 2.6 | 7.0 | 0.00 | 0.01 | 0.00 | 83 | 1007.2 |
| 20260507050016 | 69 | 133 | 3.5 | 8.7 | 0.00 | 0.01 | 0.00 | 83 | 1007.4 |
| 20260507044513 | 69 | 134 | 2.6 | 7.8 | 0.00 | 0.01 | 0.00 | 82 | 1007.5 |
| 20260507043013 | 69 | 132 | 5.2 | 9.6 | 0.00 | 0.01 | 0.00 | 82 | 1007.4 |
| 20260507041531 | 69 | 113 | 4.3 | 8.7 | 0.00 | 0.01 | 0.00 | 82 | 1007.4 |
| 20260507040011 | 69 | 125 | 3.5 | 7.0 | 0.00 | 0.01 | 0.01 | 82 | 1007.4 |
| 20260507034512 | 69 | 130 | 4.3 | 11.3 | 0.00 | 0.01 | 0.01 | 82 | 1007.2 |
| 20260507033011 | 69 | 124 | 5.2 | 9.6 | 0.00 | 0.01 | 0.01 | 82 | 1007.3 |
| 20260507031507 | 69 | 140 | 4.3 | 8.7 | 0.00 | 0.01 | 0.01 | 82 | 1007.2 |
| 20260507030006 | 69 | 125 | 5.2 | 7.0 | 0.00 | 0.01 | 0.01 | 82 | 1007.2 |
| 20260507024506 | 69 | 134 | 2.6 | 9.6 | 0.00 | 0.01 | 0.01 | 81 | 1007.4 |
| 20260507023005 | 69 | 134 | 2.6 | 7.0 | 0.00 | 0.01 | 0.01 | 81 | 1007.5 |
| 20260507021505 | 69 | 143 | 3.5 | 7.8 | 0.00 | 0.01 | 0.01 | 81 | 1007.7 |
| 20260507020005 | 69 | 132 | 6.1 | 8.7 | 0.00 | 0.01 | 0.01 | 81 | 1007.5 |
| 20260507014514 | 69 | 134 | 5.2 | 9.6 | 0.00 | 0.01 | 0.01 | 81 | 1007.3 |
| 20260507013015 | 69 | 133 | 4.3 | 7.8 | 0.00 | 0.01 | 0.01 | 81 | 1007.5 |
| 20260507011504 | 69 | 134 | 4.3 | 7.8 | 0.00 | 0.01 | 0.01 | 81 | 1007.8 |
| 20260507010002 | 69 | 140 | 3.5 | 7.0 | 0.00 | 0.01 | 0.01 | 80 | 1007.7 |
| 20260507004600 | 69 | 126 | 3.5 | 6.1 | 0.00 | 0.01 | 0.01 | 80 | 1007.8 |
| 20260507003059 | 70 | 126 | 3.5 | 7.0 | 0.00 | 0.01 | 0.01 | 78 | 1007.6 |
| 20260507001620 | 70 | 122 | 4.3 | 7.0 | 0.00 | 0.01 | 0.01 | 78 | 1007.4 |
| 20260507000101 | 71 | 132 | 4.3 | 7.8 | 0.00 | 0.01 | 0.01 | 75 | 1007.5 |
| 20260506234557 | 71 | 132 | 3.5 | 7.8 | 0.00 | 0.01 | 0.01 | 75 | 1007.3 |
| 20260506233107 | 72 | 136 | 4.3 | 7.8 | 0.00 | 0.01 | 0.01 | 73 | 1007.6 |
| 20260506231556 | 72 | 124 | 3.5 | 9.6 | 0.00 | 0.01 | 0.01 | 72 | 1007.4 |
| 20260506230157 | 72 | 135 | 4.3 | 8.7 | 0.00 | 0.01 | 0.01 | 72 | 1007.5 |
| 20260506224555 | 72 | 140 | 5.2 | 11.3 | 0.00 | 0.01 | 0.01 | 72 | 1007.3 |
| 20260506223108 | 72 | 138 | 6.1 | 10.4 | 0.00 | 0.01 | 0.01 | 73 | 1007.3 |
| 20260506221559 | 72 | 165 | 4.3 | 9.6 | 0.00 | 0.01 | 0.01 | 74 | 1007.6 |
| 20260506220051 | 72 | 120 | 2.6 | 8.7 | 0.00 | 0.01 | 0.01 | 74 | 1007.5 |
| 20260506214600 | 72 | 120 | 2.6 | 7.0 | 0.00 | 0.01 | 0.01 | 74 | 1007.6 |
| 20260506213050 | 71 | 129 | 3.5 | 9.6 | 0.00 | 0.01 | 0.01 | 75 | 1007.4 |
| 20260506211547 | 71 | 127 | 3.5 | 8.7 | 0.00 | 0.01 | 0.01 | 76 | 1007.3 |
| 20260506210046 | 70 | 127 | 1.7 | 7.0 | 0.00 | 0.01 | 0.01 | 76 | 1007.8 |
| 20260506204545 | 70 | 135 | 0.9 | 4.3 | 0.00 | 0.01 | 0.01 | 75 | 1007.2 |
| 20260506203046 | 70 | 136 | 2.6 | 6.1 | 0.00 | 0.01 | 0.01 | 75 | 1007.1 |
| 20260506201543 | 70 | 132 | 1.7 | 7.0 | 0.00 | 0.01 | 0.01 | 75 | 1007.3 |
| 20260506194541 | 70 | 142 | 5.2 | 9.6 | 0.00 | 0.01 | 0.01 | 75 | 1007.4 |
| 20260506193041 | 70 | 132 | 7.8 | 14.8 | 0.00 | 0.01 | 0.01 | 75 | 1007.6 |
| 20260506191539 | 69 | 137 | 8.7 | 13.9 | 0.00 | 0.01 | 0.01 | 76 | 1007.7 |
| 20260506190036 | 69 | 140 | 5.2 | 13.0 | 0.00 | 0.01 | 0.01 | 77 | 1008.3 |
| 20260506184534 | 68 | 136 | 6.1 | 9.6 | 0.00 | 0.01 | 0.01 | 78 | 1008.3 |
| 20260506183034 | 68 | 134 | 3.5 | 10.4 | 0.00 | 0.01 | 0.01 | 80 | 1008.6 |
| 20260506181536 | 68 | 125 | 5.2 | 12.2 | 0.00 | 0.01 | 0.01 | 79 | 1008.8 |
| 20260506180039 | 68 | 138 | 5.2 | 9.6 | 0.00 | 0.01 | 0.01 | 80 | 1008.7 |
| 20260506174530 | 68 | 122 | 7.0 | 12.2 | 0.00 | 0.01 | 0.01 | 80 | 1008.9 |
| 20260506173031 | 67 | 119 | 7.8 | 13.9 | 0.00 | 0.01 | 0.01 | 81 | 1009.1 |
| 20260506171544 | 67 | 116 | 7.0 | 12.2 | 0.00 | 0.01 | 0.01 | 83 | 1008.8 |
| 20260506170026 | 66 | 93 | 7.0 | 13.9 | 0.01 | 0.01 | 0.01 | 84 | 1009.0 |
| 20260506164524 | 65 | 121 | 7.0 | 13.0 | 0.01 | 0.01 | 0.01 | 85 | 1009.2 |
| 20260506163025 | 65 | 113 | 7.8 | 13.0 | 0.01 | 0.01 | 0.01 | 86 | 1009.5 |
| 20260506161534 | 65 | 144 | 8.7 | 13.0 | 0.01 | 0.01 | 0.01 | 86 | 1010.0 |
| 20260506160018 | 65 | 134 | 8.7 | 14.8 | 0.00 | 0.00 | 0.00 | 84 | 1010.2 |
| 20260506154515 | 66 | 130 | 6.1 | 13.0 | 0.00 | 0.00 | 0.00 | 80 | 1010.5 |
| 20260506153012 | 67 | 134 | 6.1 | 16.5 | 0.00 | 0.00 | 0.00 | 75 | 1010.6 |
| 20260506151512 | 69 | 129 | 10.4 | 15.6 | 0.00 | 0.00 | 0.00 | 72 | 1010.7 |
| 20260506150010 | 68 | 136 | 6.1 | 13.9 | 0.00 | 0.00 | 0.00 | 73 | 1010.6 |
| 20260506144510 | 69 | 121 | 10.4 | 14.8 | 0.00 | 0.00 | 0.00 | 71 | 1010.3 |
| 20260506143011 | 69 | 141 | 8.7 | 14.8 | 0.00 | 0.00 | 0.00 | 72 | 1010.3 |
| 20260506141509 | 69 | 110 | 7.8 | 13.9 | 0.00 | 0.00 | 0.00 | 71 | 1010.2 |
| 20260506140010 | 69 | 128 | 9.6 | 18.2 | 0.00 | 0.00 | 0.00 | 71 | 1010.5 |
| 20260506134519 | 68 | 135 | 8.7 | 13.0 | 0.00 | 0.00 | 0.00 | 71 | 1010.3 |
| 20260506133007 | 68 | 120 | 7.8 | 15.6 | 0.00 | 0.00 | 0.00 | 72 | 1010.3 |
| 20260506131506 | 68 | 114 | 11.3 | 17.4 | 0.00 | 0.00 | 0.00 | 73 | 1010.5 |
| 20260506130006 | 67 | 91 | 9.6 | 14.8 | 0.00 | 0.00 | 0.00 | 75 | 1010.4 |
| 20260506124510 | 67 | 146 | 9.6 | 15.6 | 0.00 | 0.00 | 0.00 | 74 | 1010.5 |
| 20260506123003 | 67 | 104 | 10.4 | 19.1 | 0.00 | 0.00 | 0.00 | 74 | 1010.5 |
| 20260506121507 | 67 | 146 | 10.4 | 17.4 | 0.00 | 0.00 | 0.00 | 74 | 1010.6 |
| 20260506120008 | 67 | 119 | 12.2 | 20.0 | 0.00 | 0.00 | 0.00 | 74 | 1010.7 |
| 20260506114503 | 66 | 126 | 9.6 | 17.4 | 0.00 | 0.00 | 0.00 | 74 | 1010.8 |
| 20260506113101 | 66 | 132 | 8.7 | 16.5 | 0.00 | 0.00 | 0.00 | 74 | 1010.6 |
| 20260506111618 | 66 | 119 | 7.8 | 13.9 | 0.00 | 0.00 | 0.00 | 74 | 1010.3 |
| 20260506110059 | 66 | 130 | 8.7 | 14.8 | 0.00 | 0.00 | 0.00 | 74 | 1010.5 |
| 20260506104604 | 65 | 134 | 7.8 | 16.5 | 0.00 | 0.00 | 0.00 | 73 | 1010.5 |
| 20260506103104 | 65 | 108 | 7.0 | 13.0 | 0.00 | 0.00 | 0.00 | 73 | 1010.4 |
| 20260506101554 | 65 | 132 | 8.7 | 13.9 | 0.00 | 0.00 | 0.00 | 74 | 1010.4 |